Location: Newark
(49.7697°N, 2.7094°E)
Time: 06:09:17
(UTC+00:00)

Envisat - Visible Passes

Search period start: 23 January 2020 00:00
Search period end: 02 February 2020 00:00
Orbit: 764 x 766 km, 98.1° (Epoch: 22 January)

Date Brightness Start Highest point End Pass type
(mag) Time Alt. Az. Time Alt. Az. Time Alt. Az.
23 Jan 5.1 05:47:00 10° NNE 05:51:27 29° E 05:55:51 10° SSE visible
23 Jan 3.1 17:05:41 10° SSE 17:10:39 59° ENE 17:15:40 10° N visible
23 Jan 5.5 18:46:11 10° SW 18:50:04 22° W 18:54:00 10° NW visible
24 Jan 6.1 05:11:25 10° NE 05:14:14 15° E 05:17:03 10° ESE visible
24 Jan 3.0 06:48:51 10° NNE 06:53:58 86° WNW 06:59:03 10° SSW visible
24 Jan 4.3 18:08:09 10° S 18:13:00 43° W 18:17:51 10° NNW visible
25 Jan 4.2 06:12:11 10° NNE 06:17:07 47° E 06:22:00 10° S visible
25 Jan 3.1 17:31:01 10° SSE 17:36:06 86° WSW 17:41:14 10° NNW visible
25 Jan 6.2 19:13:28 10° WSW 19:15:54 13° W 19:18:20 10° WNW visible
26 Jan 5.5 05:35:57 10° NE 05:40:03 24° E 05:44:08 10° SE visible
26 Jan 5.2 18:34:24 10° SSW 18:38:40 27° W 18:42:58 10° NW visible
27 Jan 6.3 05:00:57 10° ENE 05:02:47 12° E 05:04:37 10° ESE visible
27 Jan 3.2 06:37:33 10° NNE 06:42:40 78° ESE 06:47:45 10° S visible
27 Jan 3.9 17:56:41 10° S 18:01:39 53° W 18:06:38 10° NNW visible
28 Jan 4.6 06:00:59 10° NNE 06:05:45 39° E 06:10:29 10° SSE visible
28 Jan 3.0 17:19:45 10° SSE 17:24:49 78° ENE 17:29:55 10° NNW visible
28 Jan 6.0 19:01:16 10° SW 19:04:27 17° W 19:07:40 10° NW visible
29 Jan 5.8 05:24:57 10° NE 05:28:38 20° E 05:32:18 10° SE visible
29 Jan 4.9 18:22:44 10° SSW 18:27:17 33° W 18:31:52 10° NNW visible
30 Jan 3.6 06:26:17 10° NNE 06:31:22 64° ESE 06:36:24 10° S visible
30 Jan 3.5 17:45:16 10° S 17:50:19 66° WSW 17:55:24 10° NNW visible
31 Jan 5.0 05:49:50 10° NNE 05:54:23 32° E 05:58:54 10° SSE visible
31 Jan 3.0 17:08:32 10° SSE 17:13:32 64° ENE 17:18:35 10° N visible
31 Jan 5.7 18:49:17 10° SW 18:53:01 20° W 18:56:46 10° NW visible
01 Feb 6.1 05:14:05 10° NE 05:17:12 16° E 05:20:17 10° SE visible
01 Feb 4.5 18:11:09 10° SSW 18:15:55 40° W 18:20:42 10° NNW visible
